Clinton, MO

7:50 PM CST on November 20, 2019 (GMT -0600)
Clinton Memorial

Weather History for KGLY - October, 2019

Change the Weather History Date:

Tuesday, October 22, 2019

  Actual Average (WUND) Record (WUND)
Temperature  
Mean Temperature 50 °F -  
Max Temperature 60 °F - - (-1)
Min Temperature 41 °F - - (-1)
Degree Days  
Heating Degree Days 14    
Moisture  
Dew Point 33 °F    
Average Humidity 56    
Maximum Humidity 81    
Minimum Humidity 31    
Precipitation  
Precipitation 0.00 in - - ()
Sea Level Pressure  
Sea Level Pressure 29.98 in    
Wind  
Wind Speed 11 mph (WNW)    
Max Wind Speed 21 mph    
Max Gust Speed 28 mph    
Visibility 10 miles    
Events      
Averages and records for this station are not official NWS values.
T = Trace of Precipitation, MM = Missing Value Source: NWS Daily Summary

Daily Weather History Graph

Daily Weather History Graph

Search for Another Location

Airport or City:

Astronomy

Oct. 22, 2019 Rise Set
Actual Time 7:30 AM CDT 6:27 PM CDT
Civil Twilight 7:03 AM CDT 6:54 PM CDT
Nautical Twilight 6:32 AM CDT 7:25 PM CDT
Astronomical Twilight 6:01 AM CDT 7:55 PM CDT
Moon 12:47 AM CDT (10/22) 3:31 PM CDT (10/22)
Length of Visible Light 11h 50m
Length of Day
10h 57m
Last Quarter, 37% of the Moon is Illuminated
Oct 22
Last Quarter
Oct 27
New
Nov 4
First Quarter
Nov 12
Full
Nov 19
Last Quarter

Hourly Weather History & Observations

Time (CDT) Temp. Windchill Dew Point Humidity Pressure Visibility Wind Dir Wind Speed Gust Speed Precip Events Conditions
12:35 AM 50.0 °F - 37.4 °F 62% 29.88 in 10.0 mi WNW 11.5 mph 17.3 mph N/A   Clear
12:55 AM 48.2 °F - 37.4 °F 66% 29.88 in 10.0 mi West 10.4 mph - N/A   Clear
1:15 AM 48.2 °F - 37.4 °F 66% 29.88 in 10.0 mi West 10.4 mph - N/A   Clear
1:55 AM 46.4 °F 41.5 °F 37.4 °F 71% 29.89 in 10.0 mi West 10.4 mph - N/A   Clear
2:55 AM 46.4 °F 41.5 °F 37.4 °F 71% 29.89 in 10.0 mi WNW 10.4 mph - N/A   Clear
3:15 AM 44.6 °F 39.7 °F 37.4 °F 76% 29.90 in 10.0 mi West 9.2 mph - N/A   Clear
3:35 AM 44.6 °F 39.7 °F 37.4 °F 76% 29.91 in 10.0 mi West 9.2 mph - N/A   Clear
3:55 AM 44.6 °F 39.2 °F 37.4 °F 76% 29.90 in 10.0 mi West 10.4 mph - N/A   Clear
4:15 AM 44.6 °F 39.2 °F 35.6 °F 71% 29.90 in 10.0 mi West 10.4 mph - N/A   Clear
4:35 AM 44.6 °F 39.7 °F 35.6 °F 71% 29.91 in 10.0 mi West 9.2 mph - N/A   Clear
4:55 AM 44.6 °F 38.4 °F 35.6 °F 71% 29.92 in 10.0 mi West 12.7 mph - N/A   Clear
5:15 AM 44.6 °F 38.4 °F 33.8 °F 66% 29.93 in 10.0 mi West 12.7 mph 17.3 mph N/A   Clear
5:35 AM 44.6 °F 38.8 °F 33.8 °F 66% 29.93 in 10.0 mi WNW 11.5 mph 17.3 mph N/A   Clear
5:55 AM 42.8 °F 36.2 °F 32.0 °F 66% 29.94 in 10.0 mi WNW 12.7 mph - N/A   Clear
6:15 AM 42.8 °F 35.8 °F 32.0 °F 66% 29.95 in 10.0 mi WNW 13.8 mph 18.4 mph N/A   Clear
6:35 AM 42.8 °F 37.0 °F 32.0 °F 66% 29.96 in 10.0 mi WNW 10.4 mph - N/A   Clear
7:15 AM 41.0 °F 35.8 °F 32.0 °F 70% 29.96 in 10.0 mi WNW 8.1 mph - N/A   Clear
7:55 AM 42.8 °F 36.6 °F 32.0 °F 66% 29.97 in 10.0 mi WNW 11.5 mph - N/A   Clear
8:15 AM 44.6 °F 39.7 °F 32.0 °F 61% 29.98 in 10.0 mi WNW 9.2 mph - N/A   Clear
8:55 AM 46.4 °F 40.4 °F 32.0 °F 57% 30.01 in 10.0 mi WNW 13.8 mph 18.4 mph N/A   Clear
9:15 AM 48.2 °F - 32.0 °F 54% 30.02 in 10.0 mi WNW 11.5 mph 21.9 mph N/A   Clear
9:55 AM 50.0 °F - 32.0 °F 50% 30.03 in 10.0 mi WNW 12.7 mph 18.4 mph N/A   Clear
10:35 AM 53.6 °F - 30.2 °F 41% 30.03 in 10.0 mi WNW 12.7 mph 23.0 mph N/A   Clear
10:55 AM 53.6 °F - 30.2 °F 41% 30.03 in 10.0 mi NW 17.3 mph 23.0 mph N/A   Clear
11:15 AM 55.4 °F - 30.2 °F 38% 30.03 in 10.0 mi NW 17.3 mph 23.0 mph N/A   Clear
11:35 AM 55.4 °F - 30.2 °F 38% 30.03 in 10.0 mi WNW 13.8 mph 26.5 mph N/A   Clear
11:55 AM 55.4 °F - 32.0 °F 41% 30.03 in 10.0 mi NW 18.4 mph 27.6 mph N/A   Clear
12:35 PM 57.2 °F - 32.0 °F 38% 30.03 in 10.0 mi NW 16.1 mph 27.6 mph N/A   Clear
12:55 PM 57.2 °F - 32.0 °F 38% 30.02 in 10.0 mi WNW 20.7 mph 25.3 mph N/A   Clear
1:55 PM 59.0 °F - 30.2 °F 34% 30.01 in 10.0 mi WNW 19.6 mph 27.6 mph N/A   Clear
2:15 PM 59.0 °F - 32.0 °F 36% 30.00 in 10.0 mi WNW 15.0 mph 23.0 mph N/A   Clear
2:35 PM 60.8 °F - 32.0 °F 34% 30.00 in 10.0 mi NW 13.8 mph 20.7 mph N/A   Scattered Clouds
2:55 PM 59.0 °F - 30.2 °F 34% 30.00 in 10.0 mi WNW 20.7 mph 26.5 mph N/A   Scattered Clouds
3:15 PM 59.0 °F - 32.0 °F 36% 30.00 in 10.0 mi WNW 15.0 mph 25.3 mph N/A   Partly Cloudy
3:35 PM 60.8 °F - 32.0 °F 34% 30.00 in 10.0 mi NW 15.0 mph 21.9 mph N/A   Partly Cloudy
4:35 PM 59.0 °F - 28.4 °F 31% 30.01 in 10.0 mi WNW 16.1 mph 23.0 mph N/A   Clear
4:55 PM 59.0 °F - 28.4 °F 31% 30.01 in 10.0 mi WNW 16.1 mph 23.0 mph N/A   Clear
5:15 PM 59.0 °F - 28.4 °F 31% 30.02 in 10.0 mi WNW 10.4 mph 20.7 mph N/A   Clear
5:35 PM 57.2 °F - 30.2 °F 36% 30.02 in 10.0 mi WNW 8.1 mph - N/A   Clear
5:55 PM 55.4 °F - 32.0 °F 41% 30.02 in 10.0 mi WNW 6.9 mph - N/A   Scattered Clouds
6:15 PM 53.6 °F - 32.0 °F 44% 30.02 in 10.0 mi WNW 4.6 mph - N/A   Partly Cloudy
6:35 PM 50.0 °F - 32.0 °F 50% 30.02 in 10.0 mi Calm Calm - N/A   Clear
6:55 PM 48.2 °F - 33.8 °F 58% 30.02 in 10.0 mi Calm Calm - N/A   Clear
7:15 PM 46.4 °F - 33.8 °F 62% 30.02 in 10.0 mi Calm Calm - N/A   Clear
7:35 PM 46.4 °F - 35.6 °F 66% 30.02 in 10.0 mi Calm Calm - N/A   Clear
9:15 PM 46.4 °F 43.5 °F 35.6 °F 66% 30.02 in 10.0 mi SSW 5.8 mph - N/A   Clear
9:35 PM 42.8 °F 40.1 °F 37.4 °F 81% 30.02 in 10.0 mi SSW 4.6 mph - N/A   Clear
10:15 PM 42.8 °F 39.3 °F 35.6 °F 76% 30.01 in 10.0 mi SSW 5.8 mph - N/A   Clear
10:35 PM 44.6 °F 41.4 °F 35.6 °F 71% 30.01 in 10.0 mi SSW 5.8 mph - N/A   Clear
11:15 PM 44.6 °F 42.2 °F 35.6 °F 71% 30.00 in 10.0 mi SSW 4.6 mph - N/A   Clear
11:35 PM 44.6 °F 42.2 °F 35.6 °F 71% 30.00 in 10.0 mi SSW 4.6 mph - N/A   Clear